Tracking 23446 objects as of 19-Jun-2021
HD Live streaming from Space Station
objects crossing your sky now

ORBCOMM FM 4

Track ORBCOMM FM 4 now!
10-day predictions
ORBCOMM FM 4 is classified as:


NORAD ID: 25159
Int'l Code: 1998-007C
Perigee: 766.5 km
Apogee: 831.4 km
Inclination: 108.0 °
Period: 100.7 minutes
Semi major axis: 7169 km
RCS: 1.0023 m2 (large)
Launch date: February 10, 1998
Source: ORBCOMM (ORB)
Launch site: AIR FORCE WESTERN TEST RANGE (AFWTR)
aabbcc
Your satellite tracking list
Your tracking list is empty




NASA's NSSDC Master Catalog

Two Line Element Set (TLE):
1 25159U 98007C   21169.57025240  .00000100  00000-0  88990-4 0  9999
2 25159 107.9967  32.3382 0045241 265.9200  93.6765 14.29981615215330
Source of the keplerian elements: AFSPC